Regional Weather Roundup
Issued by NWS

Home | Current Version | Previous Version | Text Only | Print | Product List | Glossary Off
Versions: 1 2 3 4 5 6 7 8 9 10 11 12 13 14 15 16 17 18 19 20 21 22 23 24 25 26 27 28 29 30 31 32 33 34 35 36 37 38 39 40 41 42 43 44 45 46 47 48 49 50

000
ASUS43 KBIS 161010
RWRND

NORTH DAKOTA REGIONAL WEATHER ROUNDUP
NATIONAL WEATHER SERVICE BISMARCK ND
500 AM CDT WED AUG 16 2017

NOTE: "FAIR" INDICATES FEW OR NO CLOUDS BELOW 12,000 FEET WITH NO
SIGNIFICANT WEATHER AND/OR OBSTRUCTIONS TO VISIBILITY.


NDZ001>003-009>011-017-161100-
NORTHWEST NORTH DAKOTA

CITY           SKY/WX    TMP DP  RH WIND       PRES   REMARKS
WILLISTON      CLEAR     56  54  93 CALM      29.93S
MINOT          FOG       60  59  96 CALM      29.90S VSB 1/4
MINOT AFB      FOG       55  54  99 SE3       29.89R VSB 3/8
$$

NDZ018>021-031>035-040>046-161100-
SOUTHWEST NORTH DAKOTA

CITY           SKY/WX    TMP DP  RH WIND       PRES   REMARKS
BISMARCK       CLOUDY    62  60  93 N10       29.89S
DICKINSON      FOG       57  57 100 W5        29.93R VSB 1/4
GARRISON         N/A     57  57 100 NE5       29.90S
HETTINGER ARPT FOG       58  57  97 N6        29.96R VSB 1/4
$$

NDZ004>008-012>016-024-026-027-054-161100-
NORTHEAST NORTH DAKOTA

CITY           SKY/WX    TMP DP  RH WIND       PRES   REMARKS
GRAND FORKS    LGT RAIN  65  63  93 E8        29.86F
GRND FRKS AFB  DRIZZLE   64  63  94 E6        29.86F
DEVILS LAKE    CLOUDY    61  60  97 NE8       29.87S
$$

NDZ022-023-025-028>030-036>039-047>053-161100-
SOUTHEAST NORTH DAKOTA

CITY           SKY/WX    TMP DP  RH WIND       PRES   REMARKS
FARGO          LGT RAIN  64  63  96 E6        29.86F
JAMESTOWN      CLOUDY    64  63  96 SE7       29.82F
$$





USA.gov is the U.S. government's official web portal to all federal, state and local government web resources and services.